CEB912 RPLL-RPVK

Flight info

Callsign CEB912
Flight time 0h 47m
Altitude 26000
Route VERDE2R VERDE W24 TAPER TAPER1R
Aircraft A320/M-SDE3FGHIRWY/LB1

Departure

Time 2026-04-25 13:02
Airport Ninoy Aquino International Airport (RPLL)

Arrival

Time 2026-04-25 13:49
Airport Kalibo International Airport (RPVK)
Time Latitude Longitude Altitude Speed Heading
2026-04-25 12:35 14.51810 121.01372 69 ft 0 kts 45°
2026-04-25 12:41 14.51810 121.01371 69 ft 0 kts 45°
2026-04-25 12:44 14.51809 121.01371 69 ft 0 kts 45°
2026-04-25 12:46 14.51799 121.01361 60 ft 2 kts 45°
2026-04-25 12:46 14.51788 121.01348 63 ft 2 kts 45°
2026-04-25 12:46 14.51776 121.01336 62 ft 2 kts 40°
2026-04-25 12:46 14.51761 121.01331 66 ft 2 kts 11°
2026-04-25 12:47 14.51747 121.01323 67 ft 2 kts 50°
2026-04-25 12:47 14.51739 121.01308 59 ft 2 kts 90°
2026-04-25 12:47 14.51740 121.01297 59 ft 1 kts 128°
2026-04-25 12:47 14.51741 121.01296 64 ft 0 kts 131°
2026-04-25 12:49 14.51730 121.01307 59 ft 7 kts 134°
2026-04-25 12:49 14.51671 121.01369 69 ft 15 kts 135°
2026-04-25 12:50 14.51606 121.01436 63 ft 14 kts 135°
2026-04-25 12:50 14.51556 121.01487 65 ft 7 kts 135°
2026-04-25 12:50 14.51518 121.01526 64 ft 9 kts 135°
2026-04-25 12:50 14.51471 121.01574 67 ft 10 kts 137°
2026-04-25 12:51 14.51421 121.01583 67 ft 0 kts 205°
2026-04-25 12:51 14.51420 121.01583 67 ft 0 kts 205°
2026-04-25 12:51 14.51421 121.01583 67 ft 0 kts 205°
2026-04-25 12:52 14.51412 121.01579 63 ft 5 kts 205°
2026-04-25 12:52 14.51366 121.01579 62 ft 9 kts 147°
2026-04-25 12:52 14.51306 121.01641 61 ft 13 kts 135°
2026-04-25 12:52 14.51227 121.01722 63 ft 16 kts 134°
2026-04-25 12:53 14.51158 121.01793 66 ft 10 kts 136°
2026-04-25 12:53 14.51121 121.01831 69 ft 1 kts 135°
2026-04-25 12:53 14.51093 121.01857 66 ft 9 kts 147°
2026-04-25 12:53 14.51076 121.01867 64 ft 2 kts 144°
2026-04-25 12:54 14.51051 121.01906 64 ft 5 kts 126°
2026-04-25 12:54 14.51048 121.01909 65 ft 0 kts 134°
2026-04-25 12:54 14.51040 121.01917 65 ft 6 kts 137°
2026-04-25 12:55 14.51019 121.01929 67 ft 5 kts 175°
2026-04-25 12:55 14.50995 121.01910 66 ft 10 kts 238°
2026-04-25 12:55 14.50930 121.01785 60 ft 18 kts 239°
2026-04-25 12:55 14.50860 121.01666 63 ft 23 kts 240°
2026-04-25 12:56 14.50783 121.01525 64 ft 22 kts 239°
2026-04-25 12:56 14.50716 121.01405 64 ft 17 kts 240°
2026-04-25 12:56 14.50667 121.01317 65 ft 11 kts 241°
2026-04-25 12:56 14.50622 121.01236 65 ft 17 kts 240°
2026-04-25 12:57 14.50549 121.01106 64 ft 25 kts 240°
2026-04-25 12:57 14.50451 121.00930 67 ft 32 kts 240°
2026-04-25 12:57 14.50357 121.00760 61 ft 19 kts 243°
2026-04-25 12:57 14.50284 121.00628 63 ft 23 kts 240°
2026-04-25 12:58 14.50193 121.00463 59 ft 26 kts 240°
2026-04-25 12:58 14.50114 121.00324 63 ft 23 kts 240°
2026-04-25 12:58 14.50046 121.00201 68 ft 20 kts 240°
2026-04-25 12:58 14.49975 121.00074 62 ft 22 kts 240°
2026-04-25 12:59 14.49906 120.99973 65 ft 12 kts 213°
2026-04-25 12:59 14.49865 120.99973 66 ft 5 kts 159°
2026-04-25 12:59 14.49814 121.00006 65 ft 12 kts 132°
2026-04-25 12:59 14.49825 121.00081 64 ft 4 kts 59°
2026-04-25 13:00 14.49833 121.00094 59 ft 6 kts 59°
2026-04-25 13:00 14.49841 121.00108 64 ft 6 kts 60°
2026-04-25 13:00 14.49846 121.00117 65 ft 0 kts 60°
2026-04-25 13:01 14.49847 121.00119 65 ft 2 kts 60°
2026-04-25 13:01 14.49941 121.00291 63 ft 65 kts 61°
2026-04-25 13:02 14.50281 121.00897 64 ft 127 kts 60°
2026-04-25 13:02 14.50809 121.01826 202 ft 163 kts 63°
2026-04-25 13:02 14.51363 121.02841 892 ft 162 kts 63°
2026-04-25 13:02 14.51926 121.03844 1665 ft 161 kts 62°
2026-04-25 13:03 14.52522 121.04901 2123 ft 182 kts 61°
2026-04-25 13:03 14.53200 121.06100 2464 ft 205 kts 61°
2026-04-25 13:03 14.53961 121.07447 2834 ft 229 kts 61°
2026-04-25 13:03 14.54808 121.08941 3306 ft 251 kts 60°
2026-04-25 13:04 14.55713 121.10537 4043 ft 260 kts 60°
2026-04-25 13:04 14.56630 121.12152 4811 ft 268 kts 60°
2026-04-25 13:04 14.57586 121.13836 5593 ft 274 kts 59°
2026-04-25 13:04 14.58559 121.15551 6430 ft 279 kts 59°
2026-04-25 13:05 14.59547 121.17290 7240 ft 282 kts 59°
2026-04-25 13:05 14.60546 121.19050 8070 ft 286 kts 59°
2026-04-25 13:05 14.61560 121.20833 8900 ft 289 kts 59°
2026-04-25 13:05 14.62409 121.22706 9659 ft 296 kts 75°
2026-04-25 13:06 14.62528 121.24826 9929 ft 299 kts 99°
2026-04-25 13:06 14.61773 121.26808 10008 ft 299 kts 125°
2026-04-25 13:06 14.60281 121.28301 10040 ft 300 kts 144°
2026-04-25 13:06 14.58472 121.29556 10041 ft 329 kts 147°
2026-04-25 13:07 14.56525 121.30856 10033 ft 329 kts 147°
2026-04-25 13:07 14.54648 121.32101 10060 ft 312 kts 147°
2026-04-25 13:07 14.52825 121.33307 10259 ft 319 kts 147°
2026-04-25 13:07 14.50890 121.34588 10530 ft 341 kts 148°
2026-04-25 13:08 14.48677 121.35540 11068 ft 350 kts 169°
2026-04-25 13:08 14.46241 121.35577 11731 ft 353 kts 191°
2026-04-25 13:08 14.43948 121.34685 12419 ft 355 kts 212°
2026-04-25 13:08 14.41915 121.33223 13125 ft 358 kts 217°
2026-04-25 13:09 14.39902 121.31692 13820 ft 360 kts 217°
2026-04-25 13:09 14.37879 121.30146 14418 ft 363 kts 217°
2026-04-25 13:09 14.35841 121.28589 15008 ft 366 kts 217°
2026-04-25 13:09 14.33787 121.27022 15608 ft 368 kts 217°
2026-04-25 13:10 14.31718 121.25444 16199 ft 371 kts 217°
2026-04-25 13:10 14.29628 121.23852 16766 ft 374 kts 217°
2026-04-25 13:10 14.27550 121.22273 17330 ft 377 kts 217°
2026-04-25 13:10 14.25428 121.20663 17884 ft 380 kts 217°
2026-04-25 13:11 14.23263 121.19021 18408 ft 383 kts 217°
2026-04-25 13:11 14.21120 121.17423 18883 ft 386 kts 213°
2026-04-25 13:11 14.18668 121.16264 19344 ft 390 kts 196°
2026-04-25 13:11 14.15993 121.15699 19780 ft 393 kts 192°
2026-04-25 13:12 14.13292 121.15184 19971 ft 395 kts 191°
2026-04-25 13:12 14.10581 121.14672 20443 ft 397 kts 191°
2026-04-25 13:12 14.07860 121.14159 20915 ft 399 kts 191°
2026-04-25 13:12 14.06970 121.13990 21065 ft 400 kts 192°
2026-04-25 13:13 14.02371 121.13114 21839 ft 403 kts 192°
2026-04-25 13:13 13.99602 121.12582 22297 ft 405 kts 192°
2026-04-25 13:13 13.96822 121.12048 22751 ft 407 kts 192°
2026-04-25 13:13 13.94029 121.11514 23180 ft 410 kts 192°
2026-04-25 13:14 13.92162 121.11157 23473 ft 411 kts 192°
2026-04-25 13:14 13.88422 121.10439 23951 ft 414 kts 192°
2026-04-25 13:14 13.86510 121.10072 24194 ft 415 kts 192°
2026-04-25 13:14 13.83651 121.09526 24538 ft 418 kts 192°
2026-04-25 13:15 13.79854 121.08803 24901 ft 420 kts 192°
2026-04-25 13:15 13.77914 121.08433 24946 ft 418 kts 192°
2026-04-25 13:15 13.75070 121.07891 24971 ft 413 kts 192°
2026-04-25 13:15 13.72252 121.07356 24969 ft 411 kts 192°
2026-04-25 13:16 13.69465 121.06826 24971 ft 411 kts 192°
2026-04-25 13:16 13.66654 121.06288 24974 ft 411 kts 192°
2026-04-25 13:16 13.63845 121.05751 24972 ft 411 kts 192°
2026-04-25 13:16 13.61038 121.05214 24971 ft 411 kts 192°
2026-04-25 13:17 13.58227 121.04675 24974 ft 410 kts 192°
2026-04-25 13:17 13.55407 121.04151 24977 ft 411 kts 189°
2026-04-25 13:17 13.52551 121.04043 24977 ft 413 kts 177°
2026-04-25 13:17 13.49712 121.04550 24974 ft 415 kts 165°
2026-04-25 13:18 13.47023 121.05653 24974 ft 418 kts 154°
2026-04-25 13:18 13.44565 121.07267 24974 ft 420 kts 147°
2026-04-25 13:18 13.42185 121.08951 24968 ft 420 kts 147°
2026-04-25 13:18 13.39775 121.10642 24975 ft 420 kts 148°
2026-04-25 13:19 13.37361 121.12328 24973 ft 420 kts 148°
2026-04-25 13:19 13.34933 121.14026 24975 ft 420 kts 147°
2026-04-25 13:19 13.32523 121.15716 24972 ft 420 kts 147°
2026-04-25 13:19 13.30890 121.16863 24977 ft 420 kts 147°
2026-04-25 13:20 13.27687 121.19113 24978 ft 420 kts 147°
2026-04-25 13:20 13.25273 121.20805 24978 ft 420 kts 147°
2026-04-25 13:20 13.22851 121.22501 24979 ft 420 kts 147°
2026-04-25 13:20 13.20438 121.24191 24982 ft 420 kts 147°
2026-04-25 13:21 13.18056 121.25863 24982 ft 420 kts 147°
2026-04-25 13:21 13.15764 121.27469 24981 ft 420 kts 147°
2026-04-25 13:21 13.13353 121.29157 24983 ft 420 kts 147°
2026-04-25 13:21 13.10974 121.30823 24984 ft 420 kts 147°
2026-04-25 13:22 13.08554 121.32520 24982 ft 420 kts 147°
2026-04-25 13:22 13.06135 121.34217 24983 ft 420 kts 147°
2026-04-25 13:22 13.03725 121.35904 24982 ft 420 kts 147°
2026-04-25 13:23 12.98898 121.39278 24977 ft 420 kts 147°
2026-04-25 13:23 12.96485 121.40967 24978 ft 420 kts 147°
2026-04-25 13:23 12.94074 121.42655 24977 ft 420 kts 147°
2026-04-25 13:23 12.91660 121.44341 24972 ft 420 kts 147°
2026-04-25 13:24 12.89245 121.46025 24971 ft 420 kts 147°
2026-04-25 13:24 12.86834 121.47705 24969 ft 420 kts 147°
2026-04-25 13:24 12.84419 121.49391 24969 ft 420 kts 147°
2026-04-25 13:24 12.82037 121.51057 24964 ft 420 kts 147°
2026-04-25 13:25 12.79624 121.52747 24964 ft 420 kts 147°
2026-04-25 13:25 12.77212 121.54434 24961 ft 420 kts 147°
2026-04-25 13:25 12.74795 121.56121 24958 ft 420 kts 147°
2026-04-25 13:25 12.72387 121.57800 24956 ft 420 kts 147°
2026-04-25 13:26 12.69970 121.59485 24960 ft 420 kts 147°
2026-04-25 13:26 12.67559 121.61165 24956 ft 420 kts 147°
2026-04-25 13:26 12.65143 121.62849 24953 ft 420 kts 147°
2026-04-25 13:26 12.62734 121.64533 24955 ft 420 kts 147°
2026-04-25 13:27 12.60325 121.66216 24826 ft 416 kts 147°
2026-04-25 13:27 12.57954 121.67869 24561 ft 408 kts 147°
2026-04-25 13:27 12.55621 121.69496 24091 ft 404 kts 147°
2026-04-25 13:27 12.53301 121.71113 23600 ft 402 kts 147°
2026-04-25 13:28 12.50994 121.72719 23047 ft 399 kts 147°
2026-04-25 13:28 12.49485 121.73768 22740 ft 395 kts 147°
2026-04-25 13:28 12.46464 121.75864 22109 ft 390 kts 147°
2026-04-25 13:28 12.44230 121.77415 21641 ft 386 kts 147°
2026-04-25 13:29 12.42016 121.78956 21156 ft 383 kts 146°
2026-04-25 13:29 12.39818 121.80489 20676 ft 381 kts 146°
2026-04-25 13:29 12.37630 121.82012 20182 ft 379 kts 146°
2026-04-25 13:30 12.33404 121.85161 19203 ft 377 kts 141°
2026-04-25 13:30 12.31357 121.86839 18705 ft 377 kts 140°
2026-04-25 13:30 12.29331 121.88537 18196 ft 377 kts 140°
2026-04-25 13:31 12.25271 121.91916 17147 ft 374 kts 140°
2026-04-25 13:31 12.23248 121.93570 16671 ft 372 kts 141°
2026-04-25 13:31 12.21225 121.95214 16174 ft 370 kts 141°
2026-04-25 13:31 12.19210 121.96847 15697 ft 369 kts 141°
2026-04-25 13:32 12.17290 121.98401 15231 ft 368 kts 141°
2026-04-25 13:32 12.15283 122.00025 14745 ft 367 kts 141°
2026-04-25 13:32 12.13284 122.01640 14266 ft 366 kts 142°
2026-04-25 13:32 12.11286 122.03256 13775 ft 365 kts 142°
2026-04-25 13:33 12.09335 122.04912 13238 ft 364 kts 135°
2026-04-25 13:33 12.07769 122.06890 12745 ft 361 kts 122°
2026-04-25 13:33 12.06600 122.09142 12258 ft 357 kts 117°
2026-04-25 13:33 12.05843 122.10669 11920 ft 356 kts 117°
2026-04-25 13:34 12.04364 122.13632 11265 ft 352 kts 117°
2026-04-25 13:34 12.03251 122.15856 10816 ft 348 kts 116°
2026-04-25 13:34 12.02150 122.18051 10353 ft 345 kts 116°
2026-04-25 13:34 12.01078 122.20188 10217 ft 331 kts 116°
2026-04-25 13:35 12.00050 122.22240 10098 ft 319 kts 116°
2026-04-25 13:35 11.99284 122.23769 9994 ft 310 kts 116°
2026-04-25 13:35 11.98322 122.25696 9880 ft 299 kts 116°
2026-04-25 13:35 11.97396 122.27558 9753 ft 287 kts 116°
2026-04-25 13:36 11.96513 122.29333 9629 ft 275 kts 116°
2026-04-25 13:36 11.95670 122.31022 9497 ft 265 kts 116°
2026-04-25 13:36 11.94846 122.32670 9382 ft 256 kts 116°
2026-04-25 13:36 11.94051 122.34259 9251 ft 246 kts 116°
2026-04-25 13:37 11.93279 122.35797 9032 ft 241 kts 116°
2026-04-25 13:37 11.92500 122.37355 8422 ft 253 kts 116°
2026-04-25 13:37 11.91785 122.38783 7836 ft 260 kts 116°
2026-04-25 13:37 11.90959 122.40432 7180 ft 261 kts 116°
2026-04-25 13:38 11.90128 122.42090 6534 ft 262 kts 115°
2026-04-25 13:38 11.89245 122.43707 6009 ft 257 kts 127°
2026-04-25 13:38 11.87943 122.44851 5867 ft 239 kts 150°
2026-04-25 13:38 11.86387 122.45333 5877 ft 235 kts 173°
2026-04-25 13:39 11.84759 122.45134 5883 ft 240 kts 198°
2026-04-25 13:39 11.83334 122.44239 5887 ft 244 kts 224°
2026-04-25 13:39 11.82397 122.42788 5881 ft 248 kts 250°
2026-04-25 13:39 11.82153 122.41059 5879 ft 248 kts 276°
2026-04-25 13:40 11.82623 122.39383 5890 ft 247 kts 296°
2026-04-25 13:40 11.83347 122.37814 5884 ft 248 kts 298°
2026-04-25 13:40 11.84121 122.36240 5886 ft 248 kts 299°
2026-04-25 13:40 11.84903 122.34670 5885 ft 248 kts 299°
2026-04-25 13:41 11.85686 122.33099 5880 ft 248 kts 299°
2026-04-25 13:41 11.86680 122.31687 5883 ft 244 kts 322°
2026-04-25 13:41 11.88121 122.30838 5885 ft 238 kts 347°
2026-04-25 13:41 11.89739 122.30666 5890 ft 232 kts 11°
2026-04-25 13:42 11.91253 122.31155 5885 ft 226 kts 33°
2026-04-25 13:42 11.92434 122.32178 5887 ft 223 kts 55°
2026-04-25 13:42 11.93131 122.33570 5884 ft 220 kts 76°
2026-04-25 13:42 11.93257 122.35119 5891 ft 220 kts 97°
2026-04-25 13:43 11.92827 122.36621 5795 ft 221 kts 111°
2026-04-25 13:43 11.92186 122.38042 5475 ft 221 kts 115°
2026-04-25 13:43 11.91496 122.39436 5188 ft 219 kts 115°
2026-04-25 13:43 11.90803 122.40813 4896 ft 217 kts 115°
2026-04-25 13:44 11.90124 122.42166 4604 ft 216 kts 115°
2026-04-25 13:44 11.89354 122.43476 4297 ft 216 kts 127°
2026-04-25 13:44 11.88291 122.44561 4061 ft 216 kts 136°
2026-04-25 13:44 11.87133 122.45551 4010 ft 218 kts 137°
2026-04-25 13:45 11.86336 122.46211 4009 ft 219 kts 138°
2026-04-25 13:45 11.84774 122.47508 4011 ft 219 kts 137°
2026-04-25 13:45 11.83603 122.48499 4014 ft 218 kts 137°
2026-04-25 13:45 11.82442 122.49498 4010 ft 219 kts 136°
2026-04-25 13:46 11.81257 122.50503 3679 ft 224 kts 142°
2026-04-25 13:46 11.79761 122.50953 3345 ft 234 kts 182°
2026-04-25 13:46 11.78260 122.50303 3024 ft 241 kts 217°
2026-04-25 13:46 11.77092 122.49060 2691 ft 244 kts 230°
2026-04-25 13:47 11.76059 122.47669 2340 ft 246 kts 232°
2026-04-25 13:47 11.75061 122.46282 1987 ft 237 kts 232°
2026-04-25 13:47 11.74095 122.44987 1682 ft 227 kts 231°
2026-04-25 13:47 11.73147 122.43770 1410 ft 211 kts 230°
2026-04-25 13:48 11.72245 122.42652 1129 ft 197 kts 229°
2026-04-25 13:48 11.71396 122.41628 905 ft 178 kts 230°
2026-04-25 13:48 11.70633 122.40719 657 ft 160 kts 228°
2026-04-25 13:48 11.69932 122.39889 448 ft 151 kts 228°
2026-04-25 13:49 11.69265 122.39099 243 ft 145 kts 227°
2026-04-25 13:49 11.68610 122.38325 60 ft 143 kts 230°
2026-04-25 13:49 11.68031 122.37649 20 ft 96 kts 230°
2026-04-25 13:49 11.67767 122.37335 20 ft 39 kts 228°
2026-04-25 13:50 11.67600 122.37141 17 ft 34 kts 229°
2026-04-25 13:50 11.67503 122.37019 16 ft 4 kts 205°
2026-04-25 13:50 11.67498 122.37026 16 ft 0 kts 97°
2026-04-25 13:50 11.67533 122.37071 16 ft 21 kts 50°
2026-04-25 13:51 11.67670 122.37221 19 ft 36 kts 47°
2026-04-25 13:51 11.67855 122.37442 20 ft 45 kts 50°
2026-04-25 13:51 11.68046 122.37660 20 ft 37 kts 48°
2026-04-25 13:51 11.68217 122.37858 18 ft 34 kts 49°
2026-04-25 13:52 11.68358 122.38009 20 ft 15 kts 13°
2026-04-25 13:52 11.68397 122.38001 18 ft 1 kts 343°
2026-04-25 13:52 11.68398 122.38001 18 ft 0 kts 345°
2026-04-25 13:52 11.68407 122.38000 19 ft 0 kts 351°
2026-04-25 13:53 11.68408 122.37995 21 ft 1 kts 305°
2026-04-25 13:53 11.68403 122.37990 20 ft 2 kts 237°
2026-04-25 13:53 11.68386 122.37970 19 ft 1 kts 230°
2026-04-25 13:53 11.68392 122.37956 20 ft 3 kts 332°
2026-04-25 13:54 11.68416 122.37956 19 ft 3 kts 349°
2026-04-25 13:54 11.68428 122.37953 20 ft 2 kts 347°
2026-04-25 13:54 11.68439 122.37951 21 ft 0 kts 348°